Location: Anjeux
(47.8815°N, 6.2076°E)
Time: 09:58:13
(UTC+00:00)

AO-27 - Pass Details

Date: 13 December 2021
Orbit: 784 x 798 km, 98.9° (Epoch: 23 January)

Event Time Altitude Azimuth Distance (km) Brightness Sun altitude
Rises 16:48:36 0° 128° (SE) 3,295 10.6 -10.5°
Reaches altitude 10° 16:51:13 10° 117° (ESE) 2,370 9.8 -10.9°
Maximum altitude 16:55:32 27° 61° (ENE) 1,503 8.5 -11.6°
Drops below altitude 10° 16:59:52 10° 6° (N) 2,382 9.9 -12.3°
Sets 17:02:30 0° 354° (N) 3,316 10.7 -12.7°
